Regional Weather Roundup
Issued by NWS

Home | Current Version | Previous Version | Graphics & Text | Print | Product List | Glossary On
Versions: 1 2 3 4 5 6 7 8 9 10 11 12 13 14 15 16 17 18 19 20 21 22 23 24 25 26 27 28 29 30 31 32 33 34 35 36 37 38 39 40 41 42 43 44 45 46 47 48 49 50
000
ASUS45 KBOU 191007
RWRCO

WEATHER ROUNDUP FOR COLORADO
NATIONAL WEATHER SERVICE DENVER/BOULDER CO
400 AM MDT TUE AUG 19 2014

NOTE: "FAIR" INDICATES FEW OR NO CLOUDS BELOW 12000 FEET WITH NO
SIGNIFICANT WEATHER AND/OR OBSTRUCTIONS TO VISIBILITY.

COZ001>005-013-030-031-191100-
...NORTHWEST COLORADO...

CITY           SKY/WX    TMP DP  RH WIND       PRES   REMARKS
CRAIG          MOCLDY    62  39  42 E6        30.04F
HAYDEN         MOCLDY    55  37  50 SE10      30.08S
MEEKER         PTCLDY    57  40  52 E3        30.09R
MOUNT WERNER   NOT AVBL
STEAMBOAT SPGS MOCLDY    50  41  70 CALM      30.11R
WALDEN         PTCLDY    39  32  75 E5        30.21S
$$

COZ006>008-011-191100-
...WEST CENTRAL VALLEYS...

CITY           SKY/WX    TMP DP  RH WIND       PRES   REMARKS
GRAND JUNCTION CLOUDY    71  44  37 NW8       29.99R
MONTROSE       CLOUDY    72  45  37 VRB3      30.10R
EAGLE          MOCLDY    52  39  62 E7        30.16R
RIFLE          MOCLDY    62  43  49 NE6       30.06R
DELTA          CLOUDY    72  45  37 W3        30.05R
NUCLA          CLOUDY    70  46  43 E5        30.15R
$$

COZ017>023-064>068-191100-
...SOUTHWEST COLORADO...

CITY           SKY/WX    TMP DP  RH WIND       PRES   REMARKS
DURANGO        CLOUDY    61  49  64 N10       30.15F
CORTEZ         CLEAR     64  53  67 NE12      30.12S
PAGOSA SPRINGS CLOUDY    60  45  57 CALM      30.26S
TELLURIDE      CLOUDY    59  43  55 SE6       30.34S
WOLF CREEK PAS NOT AVBL
$$

COZ009-010-012-014-032>034-037-058>063-191100-
...CENTRAL COLORADO...

CITY           SKY/WX    TMP DP  RH WIND       PRES   REMARKS
ASPEN          LGT RAIN  59  37  44 N3        30.22R
BUENA VISTA    CLOUDY    52  38  59 NW3       30.24R
COPPER MTN     PTCLDY    54  30  40 S23       30.50S
BERTHOUD PASS  FAIR      45  43  93 SW12      30.54F
COTTONWOOD PAS CLOUDY    59  32  36 W5        30.35F
GUNNISON       CLOUDY    55  37  50 N3        30.26R
KREMMLING      PTCLDY    41  34  75 CALM      30.20S
LEADVILLE      MOCLDY    38  33  82 N3        30.34F
MONARCH PASS   CLOUDY    45  34  65 SW20      30.60F
SALIDA         CLOUDY    62  42  48 CALM      30.27S
SUNLIGHT       MOCLDY    54  37  54 CALM      30.44R
WILKERSON PASS MOCLDY    46  32  57 SW9       30.48F
$$

COZ069>075-191100-
...SAN LUIS VALLEY/SANGRE DE CRISTO MOUNTAINS...

CITY           SKY/WX    TMP DP  RH WIND       PRES   REMARKS
ALAMOSA        MOCLDY    55  43  63 CALM      30.23R
LA VETA PASS   CLOUDY    50  36  57 S7        30.37S
SAGUACHE       MOCLDY    52  45  76 N9        30.24F
$$

COZ035-036-038>040-191100-
...NORTHERN COLORADO FRONT RANGE...

CITY           SKY/WX    TMP DP  RH WIND       PRES   REMARKS
DENVER INTL AP PTCLDY    55  48  77 S9        30.02F
DMNS CITY PARK   N/A     61  46  58 S3        30.01F
AURORA         PTCLDY    58  47  67 S9        30.05F
FRONT RANGE AP PTCLDY    61  50  67 S8        30.04F
ERIE MUNI ARPT PTCLDY    56  49  78 SW3       30.00F
BOULDER MUN AP PTCLDY    61  46  59 CALM      30.01F
CENTENNIAL     PTCLDY    58  45  62 S7        30.06F
BROOMFIELD     PTCLDY    59  46  63 SW5       30.04F
FORT COLLINS   PTCLDY    57  48  72 N6        30.02F
LONGMONT       PTCLDY    56  50  78 CALM      30.02F
$$

COZ041-046-047-076>085-087-088-191100-
...PIKES PEAK/PALMER DIVIDE AND SOUTHERN FOOTHILLS...

CITY           SKY/WX    TMP DP  RH WIND       PRES   REMARKS
COLO. SPRINGS  MOCLDY    59  49  69 NE10      30.10F
A. F. ACADEMY  MOCLDY    53  45  75 NW7       30.12F
ELLICOTT       MOCLDY    55  49  80 N5        30.08F
FALCON         MOCLDY    58  48  68 NW3       30.15F
FORT CARSON    CLOUDY    61  46  59 NW10      30.06F
LIMON          PTCLDY    55  51  86 N3        30.04S
MONUMENT HILL  MOCLDY    54  45  71 S10       30.13F
TRINIDAD       PTCLDY    64  43  46 W10       30.05S
$$

COZ042>045-048>051-090-091-191100-
...NORTHEAST COLORADO...

CITY           SKY/WX    TMP DP  RH WIND       PRES   REMARKS
GREELEY ARPT   PTCLDY    54  45  71 CALM      30.00F
AKRON          PTCLDY    62  55  77 SW10      29.98F
BURLINGTON     MOCLDY    63  55  75 SE9       29.95F
WRAY             N/A     63  54  71 W5        29.94F
STERLING       PTCLDY    61  57  88 CALM      29.95S
HOLYOKE        NOT AVBL
FORT MORGAN    PTCLDY    60  52  76 W3        29.98F
$$

COZ086-089-092>099-191100-
...SOUTHEAST COLORADO...

CITY           SKY/WX    TMP DP  RH WIND       PRES   REMARKS
PUEBLO         CLOUDY    70  49  47 N10       29.97F
LA JUNTA       CLOUDY    66  51  58 W6        29.92R
LAMAR          MOCLDY    72  46  39 SE7       29.88R
SPRINGFIELD      N/A     71  48  43 SW12      29.95F
$$



USA.gov is the U.S. government's official web portal to all federal, state and local government web resources and services.